Regional Weather Roundup
Issued by NWS

Home | Current Version | Previous Version | Text Only | Print | Product List | Glossary Off
Versions: 1 2 3 4 5 6 7 8 9 10 11 12 13 14 15 16 17 18 19 20 21 22 23 24 25 26 27 28 29 30 31 32 33 34 35 36 37 38 39 40 41 42 43 44 45 46 47 48 49 50

000
ASUS45 KSLC 130910
RWRUT

UTAH REGIONAL WEATHER ROUNDUP
NATIONAL WEATHER SERVICE SALT LAKE CITY UT
200 AM MST SAT FEB 13 2016

UTZ001>011-023>025-131000-

NORTHERN UTAH

CITY           SKY/WX    TMP DP  RH WIND       PRES   REMARKS
BRIGHAM CITY   CLOUDY    26  24  93 S6        30.32F VSB 3/4 WCI  19
HILL AFB       FOG       27  27  99 SE5       30.28F VSB 1/2 WCI  21
LOGAN          FOG       22  21  96 S5        30.28F VSB 1/2 WCI  16
OGDEN          FOG       26  26 100 CALM      30.29F VSB 1/4
PROVO AIRPORT    N/A     19  18  93 CALM      30.30S VSB<1/4
SALT LAKE CITY CLOUDY    28  27  96 W3        30.31F FOG
VERNAL         CLOUDY    21  17  84 CALM      30.29F FOG
WENDOVER       CLOUDY    28  25  86 CALM      30.30F
HEBER CITY     PTCLDY    12   9  85 CALM      30.25S
WEST JORDAN    CLOUDY    28  28 100 CALM      30.31S

$$

UTZ012>022-026-027-131000-

SOUTHERN/CENTRAL UTAH

CITY           SKY/WX    TMP DP  RH WIND       PRES   REMARKS
BLANDING       PTCLDY    33  21  61 NE5       30.37F WCI  28
BRYCE CANYON   PTCLDY    17   9  70 CALM      30.35F
CEDAR CITY     MOCLDY    25  18  74 CALM      30.25F
DELTA          CLOUDY    16  15  95 CALM      30.31S VSB<1/4
HANKSVILLE     MOCLDY    30  30 100 CALM      30.32S
MILFORD        FOG        6   5  95 SW6       30.27F VSB 1/4 WCI  -4
MOAB/CYNLANDS  MOCLDY    30  28  92 SW3       30.28F
PRICE          MOCLDY    28  21  75 N3        30.28F
ST GEORGE      MOSUNNY   46  25  42 CALM      30.23S
KANAB          PTCLDY    37  28  70 N7        30.31S WCI  32

$$

REGIONAL REPORTS     COLORADO/ARIZONA

CITY           SKY/WX    TMP DP  RH WIND       PRES   REMARKS
CRAIG, CO      CLOUDY    10   7  87 CALM      30.27F
GRAND JUNCTION CLOUDY    29  24  82 CALM      30.30F
RIFLE          CLOUDY    24  18  77 CALM      30.32F
MONTROSE       CLOUDY    28  23  81 SE8       30.33F WCI  20
CORTEZ         CLOUDY    24  19  81 E7        30.33F WCI  16
PAGE, AZ       PTCLDY    38  30  73 CALM      30.27F
GRAND CANYON   PTCLDY    26  21  81 CALM      30.33S
KINGMAN        CLEAR     47  21  35 CALM      30.19S
FLAGSTAFF      PTCLDY    25  18  74 CALM      30.34F

$$

REGIONAL REPORTS    NEVADA/IDAHO/WYOMING

CITY           SKY/WX    TMP DP  RH WIND       PRES   REMARKS
LAS VEGAS, NV  PTCLDY    53  23  31 SW3       30.12S
ELY            MOCLDY    22  14  71 S16       30.29F WCI   8
ELKO           CLOUDY    20  16  84 CALM      30.28S
POCATELLO, ID  CLOUDY    27  22  81 E8        30.20F WCI  19
BURLEY         CLOUDY    31  28  89 N3        30.16F
EVANSTON, WY   CLOUDY    34  14  43 W6        30.24S WCI  29
ROCK SPRINGS   CLOUDY    34  21  59 W8        30.21F WCI  27

$$



USA.gov is the U.S. government's official web portal to all federal, state and local government web resources and services.